[[{"header":{"parameterUnit":"m.s-1","parameterCategory":1,"la1":30.2991,"la2":30.254,"lo1":-89.0895,"lo2":-89.0444,"dy":0.0017,"dx":0.0017,"nx":28,"ny":28,"refTime":"2024-12-10T09:00:00:Z","depth":0,"parameterNumber":2,"parameterNumberName":"U-component_of_WINDS"},"data":[0,0,0,0,0,0,0,0,0,0,0,0,0,0,0,0,0,0,0,0,0,0,0,0,0,0,0,0,0,0,0,0,0,0,0,0,0,0,0,0,0,0,0,0,0,0,0,0,0,0,0,0,0,0,0,0,0,0,2.1117,2.1118,0,2.1185,2.1186,2.1186,2.1193,2.1192,2.1191,2.1191,2.126,2.1262,2.1265,0,0,0,0,0,0,0,0,0,0,0,0,0,2.0996,2.0998,2.1117,2.1118,2.1119,2.1185,2.1186,2.1187,2.1193,2.1192,2.1191,2.119,2.1259,2.1262,2.1265,0,0,0,0,0,0,0,0,0,0,0,0,0,2.1054,2.0999,2.1117,2.113,2.1132,2.1185,2.1186,2.1187,2.1193,2.1192,2.1191,2.119,2.1258,2.1262,2.1265,2.131,0,0,2.1277,2.1278,0,0,0,0,0,0,0,0,2.1051,2.1059,2.1127,2.1129,2.1131,2.1179,2.1168,2.1228,2.1193,2.117,2.119,2.1189,2.1234,2.124,2.1255,2.1313,2.1316,2.1277,2.1279,2.1281,2.1282,0,0,0,0,0,0,0,2.1047,2.1056,2.1144,2.1128,2.1131,2.1133,2.114,2.118,2.1207,2.1172,2.1172,2.118,2.1235,2.1251,2.1256,2.1317,2.1277,2.128,2.1283,2.1284,2.1418,2.1419,0,0,0,0,0,0,2.104,2.1053,2.1142,2.1146,2.1088,2.1136,2.1144,2.1165,2.1207,2.1212,2.1181,2.118,2.1245,2.1252,2.1259,2.1315,2.1281,2.1285,2.1287,2.1417,2.1419,2.142,0,0,0,0,0,0,2.1038,2.1048,2.1139,2.11,2.1111,2.1139,2.1163,2.1167,2.1183,2.1214,2.1219,2.1192,2.1244,2.1253,2.1298,2.1317,2.1286,2.129,2.1415,2.1417,2.1419,2.1427,0,0,0,0,0,0,2.1034,2.1047,2.1064,2.11,2.1113,2.1176,2.1164,2.1169,2.1189,2.1189,2.1226,2.1231,2.1244,2.1292,2.1301,2.1322,2.1293,2.1414,2.1416,2.1419,2.1425,2.1429,2.1432,0,0,0,0,0,2.103,2.1063,2.1065,2.1075,2.1135,2.1178,2.1185,2.12,2.1191,2.1208,2.1229,2.1229,2.1314,2.1296,2.1307,2.1329,2.1413,2.1416,2.1418,2.1423,2.1428,2.1432,0,0,0,0,0,0,2.1028,2.1068,2.107,2.1116,2.1143,2.1178,2.1201,2.1205,2.1235,2.1234,2.1251,2.1259,2.1303,2.1321,2.1301,2.1376,2.1362,2.1368,2.1363,2.1367,2.1371,2.1366,2.1296,0,0,0,0,0,2.1033,2.1064,2.1097,2.1135,2.1148,2.1172,2.1191,2.1201,2.123,2.1242,2.1265,2.1293,2.1327,2.1348,2.138,2.1428,2.1437,2.1449,2.1452,2.1455,2.1459,2.1488,2.1494,2.143,2.143,2.143,0,0,2.1043,2.1069,2.1087,2.1135,2.1157,2.119,2.1182,2.1216,2.1241,2.1247,2.129,2.1309,2.1342,2.1389,2.141,2.1404,2.1479,2.1459,2.1461,2.1464,2.1491,2.1497,2.1503,2.1432,2.1431,2.1431,0,0,2.1079,2.1101,2.1135,2.1159,2.1193,2.1209,2.1217,2.1253,2.1265,2.1309,2.1315,2.1345,2.1401,2.1425,2.1445,2.1492,2.1495,2.1502,2.1521,2.1548,2.1554,2.1558,2.1576,2.1582,2.1506,2.1506,2.1506,0,2.1088,2.1137,2.1152,2.1187,2.1209,2.1216,2.1252,2.1273,2.1316,2.1331,2.1324,2.1397,2.1419,2.1473,2.1485,2.15,2.1511,2.1498,2.1551,2.1556,2.1561,2.1578,2.1585,2.1507,2.1507,2.1507,2.1507,0,2.1146,2.118,2.1204,2.1246,2.127,2.1305,2.1327,2.1349,2.1357,2.1375,2.1421,2.1449,2.1487,2.1501,2.1508,2.1556,2.1551,2.1548,2.1535,2.1567,2.1584,2.1591,2.1508,2.1508,2.1508,2.1508,0,0,2.1181,2.1233,2.1241,2.1262,2.1301,2.1328,2.1364,2.1402,2.1422,2.1452,2.1484,2.1532,2.153,2.1552,2.1563,2.1587,2.1625,2.1581,2.1582,2.1589,2.1681,2.1683,2.1691,2.1627,2.1628,2.1629,2.1678,0,2.1222,2.1286,2.1302,2.1357,2.139,2.1399,2.1431,2.1459,2.1476,2.1507,2.1527,2.1561,2.1555,2.1569,2.1593,2.1615,2.1643,2.1612,2.1657,2.1659,2.1649,2.1699,2.1702,2.1746,2.1685,2.1686,2.1687,0,2.1277,2.1309,2.1368,2.1405,2.1419,2.1447,2.1485,2.1514,2.1547,2.1558,2.1584,2.1593,2.1633,2.1618,2.1673,2.1651,2.1671,2.1685,2.1687,2.1692,2.1674,2.1706,2.1761,2.1768,2.1697,2.1696,2.1695,0,2.1298,2.1356,2.1399,2.1416,2.146,2.148,2.1499,2.1531,2.1554,2.1587,2.1602,2.1639,2.1659,2.1688,2.1708,2.1695,2.1762,2.1748,2.1773,2.1773,2.1786,2.1785,2.1846,2.1799,2.1799,2.1799,2.1798,0,2.1342,2.1378,2.1409,2.1435,2.1476,2.1495,2.1535,2.1555,2.1584,2.1615,2.1625,2.1654,2.1678,2.1711,2.1726,2.1771,2.1779,2.179,2.1794,2.179,2.1788,2.1803,2.18,2.18,2.18,2.18,2.1799,0,2.1372,2.1394,2.1442,2.148,2.1491,2.1519,2.1553,2.1579,2.1598,2.1637,2.1648,2.1677,2.1717,2.1739,2.1788,2.1799,2.1848,2.185,2.1837,2.1839,2.1863,2.1861,2.1935,2.1946,2.1891,2.1892,2.1892,0,2.1398,2.1426,2.1468,2.149,2.151,2.1544,2.1568,2.1589,2.1613,2.1654,2.1676,2.1716,2.1749,2.1812,2.1838,2.1876,2.188,2.1903,2.1886,2.1881,2.1881,2.188,2.1883,2.1906,2.1907,2.1907,2.1907,0,2.1443,2.1454,2.1487,2.1525,2.1553,2.1584,2.1614,2.1632,2.1658,2.1685,2.1726,2.1751,2.1803,2.1843,2.1884,2.1905,2.1911,2.1913,2.1921,2.1917,2.1908,2.1914,2.1846,2.1911,2.1911,2.191,2.191,2.191,2.1473,2.1499,2.1533,2.157,2.1596,2.1625,2.1652,2.1675,2.1709,2.1752,2.1763,2.1806,2.1841,2.1896,2.1919,2.1953,2.1949,2.196,2.1963,2.1966,2.1967,2.1903,2.1961,2.1961,2.1961,2.196,2.196,0,2.1519,2.1542,2.1577,2.162,2.165,2.1653,2.1688,2.1713,2.1751,2.1782,2.1815,2.1863,2.1903,2.1933,2.1974,2.1996,2.2,2.2006,2.2004,2.201,2.1968,2.1957,2.2002,2.2002,2.2002,2.2002,2.2002,2.2002,2.1547,2.1591,2.1606,2.1664,2.1686,2.1729,2.1748,2.1776,2.1801,2.1854,2.1887,2.1907,2.1938,2.1982,2.2019,2.2027,2.2042,2.2048,2.2056,2.2017,2.2012,2.2008,2.1998,2.2051,2.2051,2.2095,2.2096,2.2096]},{"header":{"parameterUnit":"m.s-1","parameterCategory":1,"la1":30.2991,"la2":30.254,"lo1":-89.0895,"lo2":-89.0444,"dy":0.0017,"dx":0.0017,"nx":28,"ny":28,"refTime":"2024-12-10T09:00:00:Z","depth":0,"parameterNumber":3,"parameterNumberName":"V-component_of_WINDS"},"data":[0,0,0,0,0,0,0,0,0,0,0,0,0,0,0,0,0,0,0,0,0,0,0,0,0,0,0,0,0,0,0,0,0,0,0,0,0,0,0,0,0,0,0,0,0,0,0,0,0,0,0,0,0,0,0,0,0,0,-6.8593,-6.8594,0,-6.8743,-6.8745,-6.8746,-6.8729,-6.8727,-6.8725,-6.8722,-6.8872,-6.8878,-6.8885,0,0,0,0,0,0,0,0,0,0,0,0,0,-6.8289,-6.8294,-6.8593,-6.8594,-6.8596,-6.8743,-6.8745,-6.8747,-6.873,-6.8727,-6.8724,-6.8721,-6.887,-6.8878,-6.8885,0,0,0,0,0,0,0,0,0,0,0,0,0,-6.8428,-6.8296,-6.8592,-6.8606,-6.8608,-6.8742,-6.8745,-6.8747,-6.873,-6.8727,-6.8723,-6.872,-6.8868,-6.8877,-6.8886,-6.9015,0,0,-6.8915,-6.8919,0,0,0,0,0,0,0,0,-6.842,-6.8439,-6.8602,-6.8605,-6.8608,-6.8714,-6.8693,-6.8837,-6.8731,-6.8684,-6.8722,-6.8718,-6.8822,-6.8835,-6.8871,-6.9023,-6.9029,-6.8915,-6.8921,-6.8925,-6.8928,0,0,0,0,0,0,0,-6.841,-6.8433,-6.8652,-6.8604,-6.8608,-6.8603,-6.8619,-6.872,-6.8771,-6.8688,-6.8687,-6.8705,-6.8823,-6.8862,-6.8874,-6.9031,-6.8915,-6.8924,-6.8929,-6.8933,-6.9299,-6.9303,0,0,0,0,0,0,-6.8398,-6.8425,-6.8647,-6.8656,-6.8504,-6.8612,-6.8629,-6.8683,-6.877,-6.878,-6.8708,-6.8704,-6.8848,-6.8864,-6.888,-6.9039,-6.8925,-6.8934,-6.8939,-6.9295,-6.93,-6.9304,0,0,0,0,0,0,-6.8391,-6.8418,-6.8641,-6.8541,-6.8569,-6.8621,-6.8682,-6.8688,-6.8727,-6.8786,-6.8794,-6.8738,-6.8846,-6.8867,-6.8983,-6.9044,-6.8938,-6.8947,-6.929,-6.9297,-6.9302,-6.9357,0,0,0,0,0,0,-6.8383,-6.8416,-6.8466,-6.8542,-6.8574,-6.8742,-6.8685,-6.8694,-6.8744,-6.874,-6.8816,-6.8826,-6.8845,-6.8969,-6.8992,-6.9055,-6.8954,-6.9285,-6.9293,-6.93,-6.935,-6.9364,-6.9377,0,0,0,0,0,-6.8372,-6.8474,-6.8468,-6.8495,-6.8638,-6.8746,-6.8764,-6.8785,-6.8749,-6.8799,-6.8837,-6.8823,-6.9033,-6.8981,-6.9007,-6.9073,-6.9281,-6.9291,-6.93,-6.9344,-6.9362,-6.9376,0,0,0,0,0,0,-6.8401,-6.8484,-6.8479,-6.8608,-6.8671,-6.8743,-6.8807,-6.8803,-6.8875,-6.8868,-6.889,-6.8907,-6.9025,-6.9061,-6.9001,-6.9204,-6.9152,-6.9167,-6.9177,-6.9194,-6.9207,-6.9196,-6.8962,0,0,0,0,0,-6.8423,-6.8505,-6.8572,-6.868,-6.8712,-6.8754,-6.8802,-6.8813,-6.8878,-6.8904,-6.895,-6.9013,-6.9093,-6.9145,-6.9222,-6.9355,-6.9372,-6.9413,-6.9427,-6.9437,-6.945,-6.9525,-6.9545,-6.9335,-6.9335,-6.9335,0,0,-6.8468,-6.8523,-6.8573,-6.8687,-6.8737,-6.8821,-6.8776,-6.8867,-6.8929,-6.8917,-6.9031,-6.9067,-6.9138,-6.9264,-6.9322,-6.9297,-6.9512,-6.9449,-6.9457,-6.9464,-6.9537,-6.9557,-6.9574,-6.9341,-6.934,-6.9339,0,0,-6.8594,-6.8644,-6.874,-6.8792,-6.8868,-6.8896,-6.892,-6.8994,-6.9018,-6.9133,-6.9126,-6.9201,-6.9338,-6.939,-6.9434,-6.9583,-6.9574,-6.9608,-6.9677,-6.975,-6.9767,-6.9781,-6.9836,-6.9855,-6.962,-6.962,-6.962,0,-6.864,-6.8768,-6.879,-6.8883,-6.8933,-6.8928,-6.9027,-6.9075,-6.9172,-6.9207,-6.9178,-6.9353,-6.94,-6.954,-6.9576,-6.9612,-6.964,-6.9599,-6.9763,-6.9778,-6.9792,-6.9844,-6.9865,-6.9624,-6.9623,-6.9623,-6.9623,0,-6.8822,-6.8911,-6.8979,-6.9076,-6.9135,-6.9229,-6.9266,-6.9322,-6.9329,-6.936,-6.9478,-6.9535,-6.9625,-6.9658,-6.9664,-6.9799,-6.9782,-6.9758,-6.9706,-6.9815,-6.9865,-6.9885,-6.9629,-6.9628,-6.9627,-6.9626,0,0,-6.8969,-6.9079,-6.9104,-6.9149,-6.9235,-6.9303,-6.9398,-6.9488,-6.9537,-6.9604,-6.9685,-6.9803,-6.9782,-6.9833,-6.9845,-6.9909,-7.0026,-6.9877,-6.9879,-6.9904,-7.018,-7.0198,-7.0221,-7.002,-7.0024,-7.0027,-7.0175,0,-6.9105,-6.9275,-6.9299,-6.9448,-6.9532,-6.9529,-6.9612,-6.9674,-6.9706,-6.9781,-6.9815,-6.99,-6.9865,-6.9896,-6.9959,-6.9998,-7.0082,-6.9988,-7.0095,-7.0099,-7.0079,-7.0247,-7.0266,-7.0403,-7.0194,-7.0197,-7.02,0,-6.9285,-6.9361,-6.952,-6.9597,-6.9632,-6.9707,-6.9792,-6.9864,-6.9934,-6.9953,-7.0011,-7.0016,-7.0114,-7.0059,-7.0195,-7.0131,-7.0176,-7.0203,-7.0208,-7.022,-7.0156,-7.0264,-7.0447,-7.0468,-7.023,-7.0228,-7.0225,0,-6.9379,-6.952,-6.9634,-6.9673,-6.9764,-6.9817,-6.9858,-6.9924,-6.9977,-7.0052,-7.0087,-7.0171,-7.0217,-7.0282,-7.031,-7.0266,-7.0446,-7.0391,-7.0465,-7.0464,-7.0503,-7.05,-7.0697,-7.053,-7.053,-7.0529,-7.0529,0,-6.9529,-6.9626,-6.9678,-6.9749,-6.9859,-6.9885,-6.9993,-7.0031,-7.0091,-7.0169,-7.0171,-7.0243,-7.0275,-7.0353,-7.0375,-7.0486,-7.0506,-7.0524,-7.0529,-7.0525,-7.0523,-7.0556,-7.0547,-7.0535,-7.0534,-7.0533,-7.0532,0,-6.9652,-6.969,-6.9815,-6.9893,-6.9915,-6.9993,-7.0059,-7.0127,-7.0159,-7.0258,-7.0283,-7.0333,-7.0425,-7.0459,-7.057,-7.0585,-7.0714,-7.071,-7.0691,-7.0693,-7.0765,-7.0758,-7.099,-7.1023,-7.0834,-7.0835,-7.0837,0,-6.9745,-6.9821,-6.9908,-6.9961,-7.0004,-7.0089,-7.0145,-7.0174,-7.0231,-7.0319,-7.0377,-7.0469,-7.0544,-7.0691,-7.0737,-7.0823,-7.0822,-7.0897,-7.0834,-7.0829,-7.0825,-7.0821,-7.0829,-7.0909,-7.0911,-7.0912,-7.0914,0,-6.9908,-6.9924,-7.0004,-7.0093,-7.0159,-7.0229,-7.0297,-7.0341,-7.038,-7.0445,-7.054,-7.0599,-7.0714,-7.0806,-7.0894,-7.0935,-7.0932,-7.0933,-7.0955,-7.0952,-7.0939,-7.0949,-7.0725,-7.0928,-7.0926,-7.0925,-7.0925,-7.0924,-7.002,-7.0088,-7.0161,-7.0251,-7.0306,-7.0371,-7.044,-7.0482,-7.0563,-7.066,-7.0672,-7.0775,-7.0845,-7.0964,-7.1009,-7.1089,-7.1069,-7.11,-7.1108,-7.1116,-7.1122,-7.0925,-7.1105,-7.1105,-7.1104,-7.1104,-7.1104,0,-7.0184,-7.0232,-7.0314,-7.0411,-7.0483,-7.0475,-7.0551,-7.0611,-7.0702,-7.0768,-7.0843,-7.0954,-7.1043,-7.1098,-7.1188,-7.1242,-7.1243,-7.1265,-7.1261,-7.1271,-7.1134,-7.1107,-7.1263,-7.1263,-7.1263,-7.1263,-7.1263,-7.1263,-7.0278,-7.0394,-7.0419,-7.0563,-7.0609,-7.0711,-7.0756,-7.0815,-7.0869,-7.0993,-7.1068,-7.1104,-7.1166,-7.1261,-7.1343,-7.1357,-7.139,-7.1414,-7.1426,-7.1297,-7.1281,-7.1265,-7.124,-7.1421,-7.1421,-7.1557,-7.1559,-7.156]}]]